EHI
18 17 16 13 9 7 9 8 6 3 2 2 3 4 5 6 7 10 12 6 1 0 0 0 0 0 0 0 0 0 0 0 0 0 0 0 0 0
18 17 16 14 12 11 11 11 8 4 3 3 3 5 5 5 5 8 9 6 2 0 0 0 0 0 0 0 0 0 0 0 0 0 0 0 0 0
15 14 14 15 16 13 11 10 9 5 4 3 4 6 8 7 6 6 6 4 2 1 0 0 0 0 0 0 0 0 0 0 0 0 0 0 0 0
10 9 11 15 16 14 10 8 7 7 5 4 4 7 9 9 8 7 4 2 1 1 0 0 0 0 0 0 0 0 0 0 0 0 0 0 0 0
8 8 10 15 16 13 11 8 6 6 7 6 5 6 8 8 8 7 4 2 1 0 0 0 0 0 0 0 0 0 0 0 0 0 0 0 0 0
9 9 10 13 14 11 9 7 5 5 7 7 6 5 6 7 8 7 4 3 1 0 0 0 0 0 0 0 0 0 0 0 0 0 0 0 0 0
10 10 9 9 9 7 5 4 3 3 5 6 5 3 3 6 9 7 4 2 1 1 1 0 0 0 0 0 0 0 0 0 0 0 0 0 0 0
10 11 9 8 6 3 2 1 1 1 2 3 3 2 2 5 7 6 3 2 1 1 2 1 0 0 0 0 0 0 0 0 0 0 0 0 0 0
9 10 10 8 6 4 2 1 0 0 1 2 3 3 3 3 5 5 4 2 1 1 2 1 0 0 0 0 0 0 0 0 0 0 0 0 0 0
9 9 9 8 7 5 3 2 1 0 0 1 2 2 2 2 3 4 3 1 0 0 1 1 0 0 0 0 0 0 0 0 0 0 0 0 0 0
7 7 7 6 5 4 3 2 2 1 1 1 1 1 1 1 1 1 1 0 0 1 1 1 0 0 0 0 0 0 0 0 0 0 0 0 0 0
7 7 6 4 3 2 2 3 3 2 2 1 0 0 0 0 0 0 0 0 0 1 2 1 0 0 0 1 1 1 0 0 0 0 0 0 0 0
9 9 6 3 1 1 1 2 2 2 2 2 1 0 0 0 0 0 0 0 0 0 1 1 0 0 0 1 2 2 1 1 0 0 0 0 0 0
9 8 5 2 0 0 0 1 1 0 1 2 1 0 0 0 0 0 0 0 0 0 0 0 0 0 0 0 1 1 1 1 0 0 0 0 0 0
5 4 2 0 0 0 0 0 0 0 0 1 1 0 0 0 0 0 0 0 0 0 0 0 0 0 0 0 0 0 1 1 0 0 0 0 0 0
1 1 0 0 0 0 0 0 0 0 0 0 0 0 0 0 0 0 0 0 0 0 0 0 0 0 0 0 0 0 0 0 0 0 0 0 0 0
0 1 1 0 0 0 0 0 0 0 0 0 0 0 0 0 0 0 0 0 0 0 0 0 0 0 0 0 0 0 0 0 0 0 0 0 0 0
1 1 2 1 1 0 0 0 0 0 0 0 0 0 0 0 0 0 0 0 0 0 0 0 0 0 0 0 0 0 0 0 0 0 0 0 0 0
1 2 3 3 2 1 0 0 0 0 1 0 0 0 0 0 0 0 0 0 0 0 0 0 0 0 0 0 0 0 0 0 0 0 0 0 0 0
3 3 3 3 2 1 0 0 0 1 1 0 0 0 0 0 0 0 0 0 0 0 0 0 0 0 0 0 0 0 0 0 0 0 0 0 0 0
3 4 4 3 2 1 0 0 0 1 0 0 0 0 0 0 0 0 0 0 0 0 0 0 0 0 0 0 0 0 0 0 0 0 0 0 0 0
2 2 3 2 1 0 0 0 0 0 0 0 0 0 0 0 0 0 0 0 0 0 0 0 0 0 0 0 0 0 0 0 0 0 0 0 0 0
0 1 1 1 0 0 0 0 0 0 0 0 0 0 0 0 0 0 0 0 0 0 0 0 0 0 0 0 0 0 0 0 0 0 0 0 0 0
Wind_Speed
1 1 1 1 1 1 1 0 1 1 1 1 1 1 0 1 3 2 3 5 6 6 6 7 6 6 5 4 4 4 4 4 3 3 4 5 5 5
0 1 1 1 1 1 1 1 0 1 1 1 1 1 1 0 3 2 2 5 5 6 6 6 5 5 5 4 4 3 3 2 2 2 3 3 3 3
1 1 1 2 2 2 1 1 1 1 1 1 0 1 1 1 0 1 2 2 2 4 5 6 5 5 4 4 3 3 3 2 1 1 2 2 2 2
2 2 3 2 2 2 2 2 1 0 1 1 1 1 1 1 1 1 1 2 2 4 6 6 5 5 4 4 4 4 3 2 2 1 1 0 1 2
2 3 3 3 3 2 2 2 1 1 0 0 1 1 1 1 1 1 1 0 1 3 6 6 6 6 5 5 5 5 4 3 3 2 2 1 1 0
3 3 3 3 3 3 2 2 2 1 1 0 0 1 2 2 1 1 1 0 0 1 2 5 6 7 6 5 5 5 5 4 3 2 2 2 1 1
3 3 4 5 6 4 3 3 3 2 1 1 1 2 2 2 2 1 1 1 1 1 1 2 3 3 3 4 4 5 5 5 4 3 2 2 2 2
3 3 3 4 6 6 7 7 5 3 2 2 2 2 2 2 3 2 1 1 0 1 1 1 2 2 2 2 5 6 6 5 5 4 3 2 1 1
3 3 3 5 5 4 4 4 5 6 4 2 2 2 2 3 3 3 2 1 0 0 1 1 1 1 1 3 7 6 6 5 5 4 3 2 1 1
4 4 4 4 5 5 4 4 4 5 4 2 2 2 2 3 3 2 2 1 1 2 2 1 1 1 1 2 5 7 6 6 5 4 3 2 1 0
4 5 4 4 6 5 3 4 4 3 5 5 4 3 3 4 3 3 3 2 1 1 2 1 1 1 1 1 1 4 5 5 5 4 3 2 1 1
3 4 6 5 5 4 2 2 2 2 2 3 3 3 2 3 4 3 3 2 2 1 3 2 1 1 1 1 1 1 1 3 3 3 3 2 1 0
3 3 3 4 4 4 3 2 1 1 0 1 2 2 2 2 3 3 3 3 2 2 2 2 1 1 1 1 1 1 1 1 1 1 2 2 1 1
2 2 2 2 2 3 3 3 3 2 1 1 2 2 2 2 2 2 3 3 3 2 2 2 2 1 1 1 1 1 1 1 1 1 1 1 1 2
2 3 1 1 1 1 2 3 3 2 2 2 2 2 2 1 1 2 2 2 3 3 4 3 2 2 1 1 1 1 1 1 1 2 1 1 0 1
2 2 2 1 1 1 3 2 1 2 2 2 2 1 1 1 2 2 2 2 2 2 3 4 3 2 1 1 1 1 1 1 1 1 1 1 0 1
1 1 2 2 2 1 1 1 1 2 2 2 2 1 1 2 1 2 2 2 2 2 2 2 2 2 2 2 1 2 1 1 1 1 1 0 0 0
2 2 2 1 2 2 1 1 2 2 2 2 2 2 2 2 2 2 2 2 2 2 1 1 1 1 2 3 3 2 2 1 1 1 1 1 1 0
2 2 2 1 2 2 2 2 2 2 2 2 2 2 2 2 2 2 2 2 2 2 1 1 2 2 2 2 2 2 1 1 1 1 1 1 1 1
2 2 2 2 2 2 2 2 2 2 2 2 2 2 2 2 2 1 1 2 1 1 1 2 2 1 1 2 1 2 2 1 1 1 2 1 1 1
2 2 2 2 2 2 2 2 2 2 2 2 2 2 2 2 2 2 2 2 1 1 1 1 1 2 2 1 1 1 1 2 1 1 1 2 2 2
1 2 2 2 2 1 2 1 2 2 2 2 2 2 2 2 2 2 2 2 1 2 2 1 2 2 1 2 2 2 2 1 1 2 2 2 2 2
2 2 3 3 2 2 2 2 2 2 2 2 2 2 3 3 2 2 2 2 2 2 2 2 2 2 2 2 2 2 2 2 2 2 2 4 5 6
Wind_Direction
272 269 269 295 318 319 317 208 197 223 279 301 350 338 104 113 131 154 146 152 165 176 184 188 190 193 195 198 206 214 216 212 217 229 237 240 241 240
277 3 332 321 318 303 304 286 215 175 232 310 313 324 344 19 135 139 143 140 162 171 179 177 179 183 186 192 199 197 190 187 201 217 230 235 237 234
341 20 1 348 346 343 345 355 13 88 171 277 296 333 357 327 95 163 170 145 150 170 174 174 171 167 167 170 171 164 162 168 180 214 231 229 228 232
7 11 9 358 7 354 357 358 360 31 192 250 299 293 264 267 239 211 191 167 167 161 166 165 158 149 148 149 147 142 141 134 127 118 111 197 216 238
35 36 21 15 15 5 356 355 333 334 100 180 292 333 345 339 322 277 145 199 174 156 154 154 148 142 140 134 132 126 123 118 111 105 94 83 102 125
48 49 40 32 21 5 5 355 353 0 33 77 23 13 9 351 354 349 27 315 106 104 111 137 139 140 139 134 130 129 130 126 124 111 95 81 73 76
56 51 51 56 56 43 29 13 4 9 23 51 43 18 13 3 339 328 2 354 65 97 124 133 132 132 140 132 125 125 127 133 133 123 104 85 72 61
51 40 48 49 54 60 53 46 41 35 22 32 29 22 1 346 332 332 345 345 3 57 107 101 116 128 146 150 148 146 146 141 134 126 119 108 94 80
56 39 26 36 39 33 47 46 42 46 57 62 47 23 8 349 336 335 333 282 193 152 142 140 113 119 139 142 157 160 160 157 151 145 141 144 150 161
61 52 50 39 31 25 34 47 47 38 35 68 60 37 31 358 339 331 328 353 92 48 38 98 115 107 102 135 168 169 169 170 170 164 154 141 136 140
76 61 51 46 26 34 44 52 50 40 45 57 58 56 46 29 9 7 3 10 45 56 20 32 64 50 61 71 125 176 179 182 184 179 169 162 176 165
100 83 56 34 19 30 57 67 56 21 17 34 48 41 47 44 36 33 20 13 29 39 13 4 44 43 37 36 72 112 170 179 181 185 184 187 198 184
88 84 65 40 31 25 38 48 20 345 10 70 75 59 46 50 47 41 32 35 44 46 10 2 18 19 42 21 27 49 92 96 133 146 164 167 178 161
67 80 92 77 50 12 26 10 6 1 6 51 57 53 50 45 47 55 52 51 53 71 36 29 40 26 25 35 31 20 36 55 77 83 88 80 127 128
54 47 50 143 84 54 35 18 22 3 16 47 43 38 44 47 45 50 63 68 53 42 49 48 50 44 34 34 27 25 30 25 52 69 71 63 94 126
79 80 85 57 31 50 51 37 19 24 33 45 39 26 27 45 49 43 42 46 59 43 36 42 46 47 44 25 52 41 42 42 30 55 57 39 38 96
67 99 88 85 82 73 65 49 27 31 29 21 22 21 29 35 36 39 32 28 51 48 39 35 39 45 50 34 35 36 30 23 31 26 38 30 334 49
87 100 81 65 60 59 48 43 45 38 19 13 18 11 12 19 27 32 33 33 40 48 50 34 34 22 19 36 24 21 22 1 349 348 348 337 295 8
88 88 75 56 43 38 36 35 33 30 15 7 9 2 358 7 24 30 34 31 25 21 34 27 21 17 5 352 337 330 314 307 325 339 332 308 290 267
65 69 62 56 51 44 40 32 28 31 10 359 10 8 7 5 9 14 34 25 8 3 16 29 25 5 315 297 287 288 278 275 295 301 297 290 302 312
70 76 73 65 53 39 32 20 26 34 16 5 10 358 352 354 3 1 13 11 354 3 2 348 301 292 267 287 289 266 267 268 255 245 282 291 282 269
48 59 74 74 66 47 33 12 25 34 15 359 3 348 341 342 346 351 356 353 343 338 334 318 287 294 296 293 291 283 278 262 263 256 257 253 268 276
45 43 52 55 51 45 36 26 31 30 11 354 358 350 349 345 336 339 339 336 336 340 338 330 316 309 306 295 292 289 296 281 245 243 254 263 258 255